This is the latest recevied weather packets stored in our database for station/object KA1AL. If no packets are shown the sender has not sent any weather packets the latest 10 day(s).
| Time | Temp. | Humidity | Pressure | Rain* | Wind** | Luminosity | Snow |
|---|---|---|---|---|---|---|---|
| 1777821750 | 3.89° C | 99% | 1004.1 hPa | 1.78 mm | - | 212 W/m² | - |
| 1777821446 | 3.89° C | 99% | 1004.5 hPa | 1.78 mm | - | 186 W/m² | - |
| 1777821144 | 3.89° C | 99% | 1004.1 hPa | 1.78 mm | - | 183 W/m² | - |
| 1777820841 | 3.89° C | 99% | 1004.4 hPa | 0 mm | - | 167 W/m² | - |
| 1777820537 | 3.89° C | 99% | 1004.6 hPa | 1.27 mm | - | 135 W/m² | - |
| 1777820234 | 3.89° C | 99% | 1004.8 hPa | 1.27 mm | - | 115 W/m² | - |
| 1777819931 | 3.89° C | 99% | 1005 hPa | 1.78 mm | - | 92 W/m² | - |
| 1777819628 | 3.89° C | 99% | 1005 hPa | 1.78 mm | - | 104 W/m² | - |
| 1777819326 | 3.89° C | 99% | 1004.9 hPa | 0 mm | - | 129 W/m² | - |
| 1777819022 | 3.33° C | 99% | 1004.7 hPa | 1.27 mm | - | 126 W/m² | - |
| 1777818720 | 3.89° C | 99% | 1004.7 hPa | 1.27 mm | - | 121 W/m² | - |
| 1777818416 | 3.33° C | 99% | 1005.1 hPa | 0 mm | - | 100 W/m² | - |
| 1777818113 | 3.89° C | 99% | 1005.2 hPa | 0 mm | - | 109 W/m² | - |
| 1777817809 | 3.89° C | 99% | 1005.3 hPa | 1.78 mm | - | 114 W/m² | - |
| 1777817507 | 3.89° C | 99% | 1005.2 hPa | 1.78 mm | - | 123 W/m² | - |
| 1777817203 | 3.89° C | 99% | 1005.1 hPa | 0 mm | - | 118 W/m² | - |
| 1777816901 | 3.89° C | 99% | 1005.1 hPa | 0 mm | - | 115 W/m² | - |
| 1777816598 | 3.89° C | 99% | 1005.5 hPa | 1.27 mm | - | 125 W/m² | - |
| 1777816295 | 3.33° C | 99% | 1005.4 hPa | 1.27 mm | - | 109 W/m² | - |
| 1777815992 | 3.33° C | 99% | 1005.6 hPa | 0 mm | - | 127 W/m² | - |
| 1777815690 | 3.33° C | 99% | 1005.5 hPa | 1.78 mm | - | 109 W/m² | - |
| 1777815387 | 3.89° C | 99% | 1005.4 hPa | 1.78 mm | - | 91 W/m² | - |
| 1777815084 | 3.33° C | 99% | 1005.7 hPa | 0 mm | - | 94 W/m² | - |
| 1777814780 | 3.33° C | 99% | 1005.6 hPa | 1.27 mm | - | 104 W/m² | - |
| 1777814477 | 3.89° C | 99% | 1005.7 hPa | 1.27 mm | - | 98 W/m² | - |
* Rain latest hour (hover to see other rain measurements)
** Current wind speed in m/s (hover to see current wind gust speed)